Flag for Malaysia Weather past 2 weeks in Johor Bahru, Malaysia

Now
86 °F

Partly sunny.


Feels Like: 95 °F
Forecast: 76 / 90 °F
Wind: 12 mph from South

Location: Singapore / Paya Lebar

Current Time: Aug 31, 2015 at 10:54:11 AM

Latest Report: Aug 31, 2015 at 10:00 AM


Visibility: 5 mi

Pressure: 29.89 "Hg

Humidity: 70%

Dew point: 75 °F

Location of Johor BahruLocation

Historic Weather in Johor Bahru — Graph

°F

Johor Bahru temperature yesterday

Maximum temperature yesterday: 91 °F (at 4:00 PM)
Minimum temperature yesterday: 82 °F (at 5:00 AM)
Average temperature yesterday: 86 °F

Past Weeks' High & Low Weather Summary

 TemperatureHumidityPressure
High91 °F (Aug 18, 2:00 PM)94% (Aug 27, 5:00 AM)29.92 "Hg (Aug 27, 5:00 AM)
Low79 °F (Aug 27, 5:00 AM)44% (Aug 18, 5:00 PM)29.74 "Hg (Aug 22, 4:00 PM)
Average86 °F73%29.84 "Hg
* Reported Aug 16 9:00 AM — Aug 31 9:00 AM, Johor Bahru, Weather by CustomWeather, © 2015

Note: Actual official high and low records may vary slightly from our data, if they occured in-between our weather recording intervals... More about our weather records

Advertising

Johor Bahru weather history for previous 24 hours

 ConditionsComfort  
Time TempWeatherWind HumidityBarometerVisibility
9:00 AM
Mon, Aug 31
84 °FPartly sunny.10 mph74%29.89 "HgN/A
8:00 AM84 °FPartly sunny.8 mph74%29.86 "HgN/A
7:00 AM82 °FPartly sunny.8 mph79%29.86 "HgN/A
6:00 AM82 °FPassing clouds.8 mph79%29.86 "HgN/A
5:00 AM82 °FPassing clouds.7 mph84%29.86 "HgN/A
11:00 PM
Sun, Aug 30
84 °FPassing clouds.9 mph74%29.89 "HgN/A
10:00 PM84 °FClear.8 mph74%29.89 "Hg10 mi
9:00 PM84 °FClear.9 mph70%29.86 "Hg10 mi
8:00 PM86 °FPassing clouds.9 mph66%29.83 "HgN/A
7:00 PM88 °FPartly sunny.9 mph66%29.83 "HgN/A
6:00 PM88 °FPartly sunny.12 mph62%29.80 "HgN/A
5:00 PM90 °FPartly sunny.12 mph63%29.80 "HgN/A
4:00 PM91 °FPartly sunny.14 mph56%29.80 "HgN/A
3:00 PM90 °FPartly sunny.16 mph59%29.83 "HgN/A
2:00 PM86 °FPartly sunny.13 mph70%29.86 "Hg5 mi
1:00 PM82 °FThunderstorms. Broken clouds.9 mph84%29.89 "Hg3 mi
12:00 PM88 °FBroken clouds.12 mph75%29.89 "Hg6 mi
11:00 AM88 °FBroken clouds.10 mph70%29.89 "Hg5 mi
10:00 AM86 °FBroken clouds.9 mph79%29.89 "Hg5 mi
Weather by CustomWeather, © 2015

See weather overviewHow to use our weather pages